QPF
0.02 0.02 0.02 0.01 0.00 0.01 0.01 0.02 0.03 0.04 0.03 0.02 0.01 0.01 0.01 0.01 0.01 0.00 0.00 0.00 0.00 0.00 0.00 0.00 0.00 0.00 0.00 0.00 0.00 0.00 0.00 0.01 0.02 0.01 0.01 0.01 0.02 0.03 0.02 0.02 0.03 0.02 0.02
0.03 0.02 0.02 0.01 0.01 0.01 0.01 0.02 0.03 0.03 0.03 0.03 0.03 0.02 0.01 0.01 0.01 0.00 0.00 0.00 0.00 0.00 0.00 0.01 0.00 0.00 0.00 0.00 0.00 0.00 0.00 0.01 0.01 0.02 0.02 0.01 0.02 0.03 0.03 0.04 0.03 0.03 0.03
0.02 0.02 0.02 0.02 0.02 0.01 0.01 0.02 0.02 0.03 0.02 0.02 0.03 0.03 0.02 0.01 0.01 0.00 0.00 0.00 0.00 0.00 0.00 0.01 0.01 0.00 0.00 0.00 0.00 0.00 0.00 0.00 0.01 0.02 0.01 0.01 0.01 0.02 0.03 0.03 0.03 0.03 0.02
0.01 0.02 0.02 0.03 0.03 0.01 0.01 0.02 0.02 0.01 0.02 0.02 0.02 0.03 0.03 0.02 0.01 0.00 0.00 0.00 0.00 0.00 0.00 0.01 0.01 0.00 0.01 0.01 0.01 0.01 0.01 0.01 0.00 0.01 0.01 0.01 0.01 0.01 0.01 0.02 0.02 0.02 0.01
0.01 0.01 0.02 0.03 0.03 0.01 0.01 0.01 0.01 0.01 0.01 0.01 0.02 0.03 0.04 0.03 0.02 0.01 0.00 0.00 0.00 0.00 0.00 0.00 0.00 0.00 0.01 0.01 0.00 0.00 0.00 0.00 0.00 0.00 0.00 0.00 0.01 0.01 0.01 0.00 0.00 0.01 0.01
0.01 0.01 0.02 0.03 0.03 0.01 0.01 0.01 0.01 0.01 0.01 0.01 0.02 0.04 0.04 0.03 0.02 0.01 0.00 0.00 0.00 0.00 0.00 0.00 0.00 0.00 0.00 0.00 0.00 0.00 0.00 0.00 0.00 0.00 0.00 0.00 0.00 0.00 0.01 0.00 0.00 0.01 0.01
0.01 0.01 0.01 0.02 0.02 0.01 0.01 0.01 0.01 0.01 0.01 0.01 0.02 0.03 0.04 0.03 0.02 0.01 0.00 0.00 0.00 0.00 0.00 0.00 0.00 0.00 0.00 0.00 0.01 0.00 0.00 0.00 0.00 0.00 0.00 0.00 0.00 0.00 0.00 0.00 0.01 0.01 0.01
0.01 0.01 0.01 0.01 0.01 0.01 0.01 0.01 0.01 0.01 0.01 0.01 0.02 0.02 0.03 0.04 0.03 0.01 0.00 0.00 0.00 0.00 0.00 0.00 0.00 0.00 0.00 0.00 0.00 0.00 0.00 0.00 0.00 0.00 0.00 0.00 0.01 0.00 0.00 0.02 0.02 0.01 0.03
0.01 0.01 0.01 0.01 0.01 0.01 0.01 0.00 0.00 0.01 0.02 0.02 0.02 0.02 0.02 0.02 0.02 0.01 0.00 0.00 0.00 0.00 0.00 0.00 0.00 0.00 0.00 0.00 0.00 0.00 0.00 0.00 0.00 0.00 0.01 0.01 0.01 0.01 0.01 0.01 0.03 0.02 0.03
0.01 0.01 0.02 0.02 0.01 0.01 0.01 0.01 0.01 0.01 0.01 0.01 0.02 0.02 0.02 0.02 0.02 0.01 0.00 0.00 0.00 0.00 0.00 0.00 0.00 0.00 0.00 0.00 0.00 0.00 0.00 0.00 0.00 0.00 0.00 0.00 0.00 0.00 0.00 0.00 0.01 0.01 0.01
0.01 0.01 0.02 0.02 0.02 0.02 0.02 0.01 0.01 0.01 0.01 0.01 0.02 0.01 0.01 0.02 0.02 0.02 0.01 0.01 0.01 0.01 0.01 0.00 0.00 0.00 0.00 0.00 0.00 0.00 0.00 0.00 0.00 0.00 0.00 0.00 0.00 0.00 0.00 0.01 0.01 0.01 0.01
0.01 0.02 0.03 0.03 0.02 0.02 0.02 0.01 0.01 0.01 0.01 0.01 0.01 0.01 0.01 0.01 0.02 0.02 0.02 0.02 0.01 0.01 0.00 0.00 0.00 0.00 0.00 0.00 0.00 0.00 0.00 0.00 0.00 0.00 0.00 0.00 0.00 0.00 0.00 0.01 0.00 0.00 0.00
0.01 0.02 0.03 0.03 0.02 0.03 0.02 0.01 0.01 0.01 0.01 0.01 0.01 0.01 0.01 0.01 0.01 0.02 0.02 0.02 0.02 0.01 0.00 0.00 0.00 0.00 0.00 0.00 0.00 0.00 0.00 0.00 0.00 0.00 0.00 0.00 0.00 0.00 0.00 0.00 0.00 0.00 0.00
0.00 0.01 0.02 0.02 0.02 0.02 0.02 0.02 0.01 0.01 0.02 0.02 0.02 0.01 0.01 0.00 0.01 0.02 0.03 0.03 0.01 0.01 0.00 0.01 0.00 0.00 0.00 0.00 0.00 0.00 0.00 0.00 0.00 0.00 0.00 0.00 0.01 0.01 0.00 0.00 0.00 0.00 0.00
0.01 0.01 0.01 0.02 0.02 0.02 0.02 0.02 0.02 0.02 0.02 0.02 0.02 0.02 0.01 0.01 0.01 0.01 0.01 0.02 0.02 0.01 0.01 0.00 0.00 0.00 0.00 0.00 0.00 0.00 0.00 0.01 0.00 0.00 0.00 0.00 0.01 0.00 0.01 0.00 0.00 0.00 0.00
0.01 0.01 0.02 0.02 0.03 0.02 0.02 0.01 0.02 0.03 0.02 0.02 0.02 0.01 0.01 0.01 0.01 0.01 0.01 0.01 0.01 0.01 0.00 0.00 0.00 0.00 0.00 0.00 0.01 0.01 0.00 0.00 0.01 0.00 0.00 0.00 0.00 0.00 0.00 0.00 0.00 0.00 0.00
0.01 0.01 0.03 0.02 0.02 0.02 0.02 0.02 0.02 0.02 0.02 0.02 0.01 0.01 0.00 0.00 0.00 0.01 0.01 0.01 0.00 0.00 0.00 0.00 0.00 0.00 0.00 0.00 0.01 0.00 0.00 0.01 0.00 0.00 0.00 0.00 0.00 0.00 0.00 0.00 0.00 0.00 0.00
0.01 0.01 0.01 0.02 0.02 0.03 0.04 0.04 0.04 0.03 0.02 0.03 0.03 0.01 0.00 0.00 0.00 0.00 0.00 0.00 0.00 0.00 0.00 0.00 0.00 0.00 0.00 0.00 0.01 0.00 0.00 0.00 0.00 0.00 0.00 0.00 0.00 0.00 0.00 0.00 0.00 0.00 0.00
0.01 0.01 0.01 0.01 0.01 0.02 0.03 0.04 0.03 0.03 0.03 0.03 0.03 0.01 0.01 0.01 0.01 0.01 0.01 0.00 0.00 0.00 0.01 0.00 0.00 0.00 0.00 0.00 0.00 0.01 0.00 0.00 0.00 0.00 0.00 0.00 0.00 0.00 0.00 0.00 0.00 0.00 0.00
0.01 0.01 0.01 0.01 0.01 0.02 0.03 0.03 0.03 0.02 0.01 0.02 0.03 0.01 0.01 0.01 0.01 0.01 0.01 0.01 0.01 0.00 0.00 0.01 0.01 0.00 0.00 0.00 0.00 0.01 0.00 0.00 0.00 0.00 0.00 0.00 0.00 0.00 0.00 0.00 0.00 0.00 0.00
0.01 0.00 0.01 0.00 0.01 0.02 0.02 0.03 0.02 0.01 0.01 0.02 0.03 0.02 0.01 0.02 0.01 0.01 0.01 0.01 0.01 0.01 0.00 0.00 0.00 0.00 0.00 0.00 0.00 0.00 0.00 0.00 0.00 0.00 0.00 0.00 0.00 0.00 0.00 0.00 0.00 0.00 0.00
0.01 0.01 0.01 0.01 0.02 0.02 0.02 0.02 0.02 0.02 0.02 0.02 0.02 0.02 0.01 0.01 0.01 0.00 0.01 0.01 0.01 0.00 0.00 0.00 0.00 0.00 0.00 0.00 0.00 0.00 0.00 0.00 0.00 0.00 0.00 0.00 0.00 0.00 0.00 0.00 0.00 0.00 0.00
0.01 0.01 0.01 0.02 0.02 0.02 0.03 0.02 0.03 0.04 0.03 0.02 0.02 0.02 0.01 0.01 0.01 0.00 0.00 0.00 0.00 0.00 0.00 0.00 0.00 0.00 0.00 0.00 0.00 0.00 0.00 0.00 0.00 0.00 0.00 0.01 0.00 0.00 0.00 0.00 0.01 0.00 0.00
0.01 0.02 0.02 0.03 0.02 0.02 0.03 0.03 0.03 0.04 0.03 0.02 0.02 0.02 0.02 0.01 0.01 0.01 0.01 0.01 0.01 0.00 0.00 0.00 0.00 0.00 0.00 0.00 0.00 0.00 0.00 0.00 0.00 0.00 0.00 0.00 0.00 0.00 0.00 0.00 0.00 0.00 0.00
0.01 0.01 0.02 0.03 0.03 0.02 0.02 0.03 0.03 0.03 0.03 0.02 0.02 0.02 0.02 0.01 0.01 0.01 0.01 0.01 0.01 0.01 0.00 0.00 0.00 0.00 0.00 0.00 0.00 0.00 0.00 0.00 0.00 0.00 0.00 0.00 0.00 0.00 0.00 0.00 0.01 0.01 0.00
0.01 0.01 0.01 0.02 0.03 0.03 0.03 0.03 0.04 0.03 0.03 0.02 0.02 0.02 0.02 0.02 0.01 0.01 0.01 0.01 0.00 0.00 0.00 0.00 0.00 0.00 0.00 0.00 0.00 0.00 0.00 0.00 0.00 0.00 0.00 0.00 0.00 0.00 0.00 0.00 0.01 0.01 0.00
MSLP
1015.99 1016.11 1016.26 1016.44 1016.61 1016.79 1016.96 1017.14 1017.35 1017.57 1017.81 1018.04 1018.26 1018.44 1018.56 1018.60 1018.56 1018.46 1018.30 1018.12 1017.94 1017.78 1017.65 1017.57 1017.51 1017.49 1017.48 1017.49 1017.51 1017.56 1017.62 1017.73 1017.88 1018.07 1018.30 1018.55 1018.80 1019.02 1019.20 1019.33 1019.39 1019.40 1019.36
1016.01 1016.16 1016.36 1016.56 1016.75 1016.94 1017.11 1017.30 1017.50 1017.74 1017.99 1018.26 1018.50 1018.71 1018.84 1018.89 1018.86 1018.75 1018.58 1018.39 1018.21 1018.05 1017.92 1017.84 1017.79 1017.75 1017.73 1017.71 1017.70 1017.71 1017.74 1017.83 1017.97 1018.19 1018.46 1018.77 1019.11 1019.42 1019.70 1019.90 1020.03 1020.08 1020.06
1015.93 1016.13 1016.36 1016.60 1016.82 1017.02 1017.20 1017.39 1017.60 1017.85 1018.12 1018.41 1018.68 1018.91 1019.07 1019.14 1019.11 1019.01 1018.85 1018.67 1018.48 1018.33 1018.21 1018.12 1018.06 1018.02 1017.97 1017.92 1017.87 1017.84 1017.84 1017.90 1018.04 1018.27 1018.58 1018.96 1019.38 1019.79 1020.17 1020.47 1020.68 1020.80 1020.81
1015.75 1016.00 1016.28 1016.56 1016.81 1017.03 1017.23 1017.42 1017.64 1017.89 1018.18 1018.48 1018.78 1019.03 1019.22 1019.31 1019.31 1019.23 1019.10 1018.93 1018.77 1018.62 1018.51 1018.43 1018.37 1018.32 1018.25 1018.17 1018.08 1018.00 1017.97 1018.00 1018.13 1018.36 1018.70 1019.13 1019.61 1020.11 1020.58 1020.98 1021.29 1021.48 1021.56
1015.45 1015.76 1016.11 1016.44 1016.74 1016.99 1017.20 1017.40 1017.62 1017.88 1018.16 1018.48 1018.78 1019.06 1019.27 1019.40 1019.44 1019.40 1019.30 1019.17 1019.04 1018.93 1018.84 1018.78 1018.72 1018.66 1018.58 1018.48 1018.37 1018.26 1018.19 1018.19 1018.29 1018.51 1018.85 1019.30 1019.82 1020.37 1020.91 1021.39 1021.78 1022.06 1022.21
1015.06 1015.44 1015.86 1016.26 1016.61 1016.90 1017.14 1017.35 1017.57 1017.81 1018.10 1018.40 1018.71 1019.00 1019.23 1019.39 1019.48 1019.48 1019.44 1019.37 1019.29 1019.22 1019.17 1019.13 1019.10 1019.05 1018.98 1018.88 1018.75 1018.62 1018.53 1018.50 1018.56 1018.75 1019.05 1019.47 1019.99 1020.55 1021.12 1021.66 1022.12 1022.47 1022.70
1014.60 1015.06 1015.56 1016.03 1016.44 1016.77 1017.04 1017.26 1017.48 1017.72 1017.98 1018.27 1018.57 1018.86 1019.11 1019.30 1019.42 1019.49 1019.50 1019.49 1019.47 1019.46 1019.46 1019.47 1019.47 1019.46 1019.41 1019.33 1019.21 1019.08 1018.97 1018.91 1018.93 1019.06 1019.31 1019.67 1020.13 1020.66 1021.22 1021.78 1022.28 1022.70 1023.01
1014.11 1014.64 1015.20 1015.74 1016.21 1016.59 1016.90 1017.15 1017.37 1017.59 1017.84 1018.11 1018.39 1018.67 1018.92 1019.13 1019.29 1019.40 1019.47 1019.52 1019.56 1019.61 1019.67 1019.73 1019.79 1019.82 1019.82 1019.78 1019.70 1019.59 1019.48 1019.41 1019.38 1019.45 1019.61 1019.89 1020.26 1020.72 1021.24 1021.78 1022.29 1022.76 1023.14
1013.63 1014.20 1014.81 1015.40 1015.93 1016.36 1016.70 1016.98 1017.22 1017.45 1017.69 1017.94 1018.20 1018.46 1018.70 1018.92 1019.09 1019.23 1019.35 1019.44 1019.54 1019.64 1019.76 1019.88 1020.00 1020.09 1020.16 1020.17 1020.15 1020.09 1020.01 1019.93 1019.88 1019.89 1019.97 1020.15 1020.42 1020.78 1021.22 1021.71 1022.22 1022.71 1023.15
1013.21 1013.78 1014.41 1015.02 1015.58 1016.06 1016.45 1016.77 1017.04 1017.29 1017.53 1017.77 1018.01 1018.26 1018.48 1018.69 1018.86 1019.02 1019.15 1019.28 1019.41 1019.56 1019.72 1019.89 1020.06 1020.22 1020.36 1020.45 1020.50 1020.51 1020.48 1020.43 1020.38 1020.35 1020.37 1020.45 1020.62 1020.88 1021.23 1021.65 1022.13 1022.63 1023.10
1012.89 1013.42 1014.01 1014.62 1015.19 1015.70 1016.14 1016.51 1016.82 1017.11 1017.37 1017.62 1017.86 1018.08 1018.29 1018.48 1018.64 1018.79 1018.92 1019.06 1019.20 1019.37 1019.56 1019.76 1019.98 1020.20 1020.41 1020.58 1020.72 1020.82 1020.86 1020.86 1020.84 1020.81 1020.79 1020.81 1020.89 1021.05 1021.31 1021.66 1022.09 1022.57 1023.07
1012.71 1013.14 1013.66 1014.22 1014.77 1015.29 1015.77 1016.19 1016.57 1016.90 1017.21 1017.48 1017.73 1017.95 1018.15 1018.31 1018.46 1018.58 1018.70 1018.83 1018.97 1019.13 1019.33 1019.55 1019.80 1020.07 1020.33 1020.59 1020.81 1020.99 1021.13 1021.20 1021.24 1021.23 1021.21 1021.20 1021.23 1021.32 1021.49 1021.77 1022.14 1022.59 1023.08
1012.70 1012.99 1013.38 1013.85 1014.35 1014.86 1015.36 1015.83 1016.27 1016.67 1017.03 1017.35 1017.63 1017.86 1018.05 1018.20 1018.33 1018.43 1018.53 1018.64 1018.76 1018.92 1019.10 1019.33 1019.59 1019.87 1020.18 1020.49 1020.79 1021.06 1021.28 1021.44 1021.55 1021.60 1021.61 1021.59 1021.60 1021.64 1021.75 1021.96 1022.26 1022.66 1023.12
1012.86 1012.98 1013.22 1013.56 1013.98 1014.44 1014.94 1015.45 1015.94 1016.41 1016.83 1017.21 1017.52 1017.78 1017.98 1018.13 1018.25 1018.34 1018.43 1018.52 1018.63 1018.77 1018.94 1019.15 1019.40 1019.70 1020.02 1020.36 1020.70 1021.03 1021.33 1021.57 1021.75 1021.87 1021.93 1021.95 1021.95 1021.97 1022.04 1022.19 1022.42 1022.76 1023.17
1013.19 1013.13 1013.20 1013.38 1013.69 1014.09 1014.56 1015.07 1015.60 1016.12 1016.60 1017.03 1017.38 1017.67 1017.90 1018.07 1018.19 1018.30 1018.39 1018.48 1018.59 1018.72 1018.88 1019.07 1019.31 1019.58 1019.89 1020.23 1020.59 1020.95 1021.29 1021.59 1021.84 1022.03 1022.14 1022.20 1022.23 1022.24 1022.29 1022.38 1022.56 1022.82 1023.16
1013.68 1013.44 1013.33 1013.36 1013.53 1013.83 1014.25 1014.74 1015.28 1015.82 1016.34 1016.80 1017.19 1017.52 1017.77 1017.97 1018.13 1018.26 1018.38 1018.49 1018.62 1018.76 1018.91 1019.09 1019.30 1019.54 1019.82 1020.13 1020.47 1020.82 1021.18 1021.51 1021.80 1022.04 1022.21 1022.32 1022.38 1022.41 1022.44 1022.50 1022.62 1022.81 1023.08
1014.30 1013.91 1013.63 1013.51 1013.54 1013.73 1014.06 1014.50 1015.01 1015.54 1016.05 1016.53 1016.94 1017.29 1017.57 1017.81 1018.00 1018.18 1018.35 1018.51 1018.67 1018.84 1019.01 1019.18 1019.37 1019.57 1019.79 1020.05 1020.34 1020.65 1020.99 1021.32 1021.62 1021.89 1022.11 1022.26 1022.36 1022.42 1022.45 1022.50 1022.58 1022.71 1022.91
1015.02 1014.52 1014.11 1013.85 1013.75 1013.82 1014.05 1014.40 1014.84 1015.32 1015.80 1016.25 1016.65 1016.99 1017.29 1017.55 1017.79 1018.02 1018.25 1018.47 1018.69 1018.90 1019.09 1019.27 1019.44 1019.60 1019.77 1019.96 1020.18 1020.43 1020.71 1021.01 1021.32 1021.60 1021.84 1022.04 1022.17 1022.26 1022.32 1022.37 1022.43 1022.52 1022.67
1015.83 1015.26 1014.77 1014.41 1014.20 1014.15 1014.26 1014.51 1014.84 1015.23 1015.63 1016.01 1016.36 1016.67 1016.96 1017.23 1017.50 1017.77 1018.05 1018.33 1018.61 1018.87 1019.09 1019.28 1019.44 1019.57 1019.68 1019.81 1019.95 1020.13 1020.35 1020.61 1020.89 1021.17 1021.43 1021.66 1021.84 1021.97 1022.06 1022.13 1022.19 1022.27 1022.38
1016.70 1016.12 1015.60 1015.17 1014.88 1014.74 1014.74 1014.85 1015.07 1015.33 1015.61 1015.89 1016.15 1016.40 1016.64 1016.89 1017.15 1017.44 1017.76 1018.08 1018.40 1018.70 1018.96 1019.16 1019.31 1019.41 1019.48 1019.55 1019.63 1019.74 1019.90 1020.11 1020.36 1020.63 1020.91 1021.16 1021.38 1021.56 1021.70 1021.80 1021.88 1021.96 1022.06
1017.62 1017.09 1016.58 1016.14 1015.80 1015.58 1015.48 1015.48 1015.55 1015.67 1015.81 1015.96 1016.10 1016.25 1016.41 1016.60 1016.83 1017.11 1017.42 1017.76 1018.10 1018.41 1018.68 1018.89 1019.03 1019.11 1019.15 1019.17 1019.20 1019.26 1019.37 1019.54 1019.77 1020.03 1020.31 1020.59 1020.85 1021.07 1021.25 1021.39 1021.50 1021.61 1021.72
1018.60 1018.15 1017.69 1017.28 1016.93 1016.66 1016.48 1016.37 1016.31 1016.29 1016.28 1016.27 1016.28 1016.30 1016.36 1016.46 1016.63 1016.85 1017.12 1017.43 1017.75 1018.05 1018.30 1018.50 1018.62 1018.68 1018.69 1018.68 1018.68 1018.71 1018.79 1018.93 1019.14 1019.39 1019.68 1019.97 1020.25 1020.51 1020.72 1020.90 1021.05 1021.17 1021.30
1019.61 1019.27 1018.91 1018.55 1018.22 1017.94 1017.70 1017.50 1017.32 1017.16 1017.01 1016.86 1016.73 1016.62 1016.56 1016.55 1016.62 1016.76 1016.95 1017.19 1017.45 1017.70 1017.91 1018.07 1018.16 1018.19 1018.18 1018.15 1018.13 1018.13 1018.20 1018.32 1018.51 1018.75 1019.03 1019.33 1019.62 1019.88 1020.12 1020.31 1020.48 1020.62 1020.75
1020.65 1020.43 1020.17 1019.89 1019.60 1019.32 1019.05 1018.78 1018.52 1018.25 1017.97 1017.70 1017.45 1017.22 1017.04 1016.92 1016.88 1016.91 1017.01 1017.15 1017.31 1017.48 1017.61 1017.71 1017.75 1017.74 1017.70 1017.65 1017.61 1017.60 1017.65 1017.76 1017.93 1018.15 1018.40 1018.68 1018.95 1019.20 1019.42 1019.61 1019.77 1019.91 1020.04
1021.68 1021.58 1021.43 1021.22 1020.99 1020.72 1020.44 1020.13 1019.80 1019.46 1019.10 1018.74 1018.39 1018.07 1017.80 1017.58 1017.44 1017.36 1017.35 1017.38 1017.43 1017.48 1017.52 1017.52 1017.50 1017.43 1017.35 1017.27 1017.21 1017.18 1017.21 1017.29 1017.43 1017.61 1017.83 1018.05 1018.27 1018.47 1018.65 1018.80 1018.92 1019.03 1019.13
1022.68 1022.68 1022.61 1022.48 1022.29 1022.05 1021.76 1021.44 1021.07 1020.69 1020.28 1019.87 1019.48 1019.11 1018.78 1018.50 1018.28 1018.11 1018.00 1017.91 1017.84 1017.78 1017.71 1017.61 1017.49 1017.36 1017.22 1017.10 1017.00 1016.94 1016.93 1016.97 1017.06 1017.18 1017.33 1017.48 1017.62 1017.74 1017.84 1017.91 1017.97 1018.02 1018.07
Thickness
5719 5722 5723 5724 5724 5724 5723 5723 5723 5723 5723 5721 5719 5718 5716 5717 5717 5718 5718 5718 5717 5716 5715 5713 5711 5710 5708 5706 5705 5704 5701 5699 5699 5697 5695 5696 5698 5700 5701 5703 5704 5706 5708
5715 5717 5720 5720 5721 5721 5721 5721 5721 5721 5721 5720 5718 5716 5715 5714 5714 5714 5715 5715 5714 5714 5713 5711 5709 5708 5706 5705 5703 5702 5698 5696 5696 5693 5690 5688 5690 5694 5697 5698 5700 5701 5703
5713 5715 5717 5718 5718 5719 5720 5721 5720 5719 5719 5718 5716 5714 5712 5711 5710 5710 5711 5711 5711 5711 5710 5709 5707 5706 5705 5703 5701 5700 5698 5693 5692 5693 5690 5684 5682 5685 5690 5692 5694 5696 5698
5715 5715 5716 5716 5718 5719 5720 5719 5718 5717 5717 5716 5714 5712 5708 5705 5706 5706 5707 5708 5708 5708 5708 5707 5706 5704 5703 5702 5701 5699 5697 5695 5691 5690 5690 5689 5687 5684 5683 5686 5689 5692 5693
5715 5716 5717 5718 5718 5719 5718 5718 5716 5715 5715 5714 5713 5710 5707 5705 5704 5704 5705 5705 5705 5705 5705 5705 5704 5703 5702 5700 5699 5698 5696 5694 5692 5690 5688 5687 5685 5685 5682 5679 5682 5686 5688
5716 5716 5717 5717 5716 5716 5716 5715 5714 5713 5712 5711 5710 5709 5706 5704 5702 5701 5701 5701 5701 5702 5702 5702 5701 5700 5699 5698 5697 5696 5694 5693 5691 5690 5688 5686 5684 5682 5681 5678 5677 5679 5682
5714 5714 5714 5714 5714 5714 5714 5713 5712 5710 5709 5708 5707 5707 5705 5703 5701 5700 5699 5698 5698 5698 5699 5699 5699 5698 5697 5696 5695 5693 5692 5690 5689 5688 5686 5685 5684 5683 5681 5679 5676 5676 5678
5714 5714 5714 5714 5714 5713 5712 5711 5710 5708 5707 5706 5705 5705 5703 5702 5700 5699 5698 5697 5696 5696 5697 5697 5696 5695 5694 5693 5692 5690 5689 5688 5687 5686 5684 5683 5682 5682 5681 5679 5676 5673 5673
5713 5713 5713 5713 5713 5712 5712 5711 5709 5707 5705 5705 5704 5702 5701 5700 5699 5697 5697 5695 5695 5695 5694 5694 5693 5692 5691 5690 5689 5687 5685 5684 5683 5682 5682 5680 5680 5680 5679 5678 5677 5674 5669
5712 5712 5712 5712 5712 5712 5711 5710 5708 5706 5704 5703 5702 5701 5700 5699 5697 5696 5695 5694 5693 5693 5692 5691 5690 5689 5688 5687 5685 5683 5682 5681 5680 5679 5679 5678 5677 5677 5677 5676 5675 5674 5671
5711 5711 5711 5711 5711 5710 5709 5707 5706 5704 5702 5701 5700 5699 5698 5697 5696 5694 5693 5692 5691 5690 5689 5688 5687 5685 5684 5683 5682 5680 5679 5678 5677 5676 5676 5674 5674 5673 5673 5673 5672 5670 5669
5711 5710 5709 5708 5707 5707 5706 5705 5704 5703 5702 5701 5699 5697 5696 5694 5693 5692 5691 5691 5689 5688 5687 5685 5684 5682 5680 5679 5678 5677 5676 5675 5674 5673 5672 5671 5671 5670 5669 5668 5667 5666 5665
5709 5708 5706 5705 5705 5705 5705 5704 5703 5702 5700 5699 5697 5695 5693 5692 5691 5690 5689 5688 5687 5685 5684 5682 5680 5678 5677 5676 5675 5674 5673 5672 5671 5670 5669 5668 5668 5666 5665 5664 5663 5662 5661
5707 5705 5704 5704 5704 5704 5703 5702 5701 5700 5698 5696 5694 5692 5691 5690 5689 5688 5686 5685 5684 5682 5680 5679 5677 5675 5674 5673 5671 5670 5669 5668 5668 5667 5666 5665 5664 5663 5662 5661 5659 5657 5655
5704 5704 5703 5702 5702 5702 5701 5700 5699 5698 5696 5694 5692 5690 5689 5687 5686 5684 5683 5682 5680 5679 5677 5675 5673 5672 5671 5669 5668 5667 5666 5664 5663 5663 5662 5662 5661 5661 5660 5658 5655 5653 5650
5704 5704 5703 5702 5701 5700 5700 5699 5697 5696 5694 5692 5690 5688 5686 5684 5682 5680 5679 5677 5676 5674 5673 5671 5669 5668 5668 5667 5665 5664 5662 5660 5659 5657 5657 5657 5657 5656 5655 5654 5652 5650 5647
5705 5705 5704 5703 5702 5701 5700 5698 5696 5694 5692 5690 5689 5686 5684 5681 5678 5677 5674 5673 5671 5669 5668 5666 5665 5664 5663 5663 5661 5660 5658 5656 5654 5653 5652 5652 5651 5649 5648 5647 5646 5645 5643
5704 5705 5705 5704 5703 5701 5699 5698 5695 5692 5690 5687 5685 5683 5680 5677 5675 5673 5670 5669 5667 5665 5662 5661 5660 5659 5658 5658 5657 5655 5652 5650 5649 5647 5646 5645 5644 5644 5642 5641 5639 5637 5636
5706 5706 5706 5705 5703 5700 5698 5696 5692 5689 5687 5685 5683 5681 5679 5675 5672 5669 5666 5664 5662 5659 5657 5656 5655 5653 5653 5652 5651 5650 5646 5644 5642 5642 5641 5640 5639 5638 5637 5635 5632 5630 5629
5703 5704 5703 5702 5699 5698 5696 5693 5690 5687 5686 5685 5683 5680 5678 5674 5670 5667 5664 5661 5658 5655 5653 5650 5649 5648 5647 5646 5645 5644 5641 5638 5636 5635 5634 5634 5633 5632 5631 5628 5625 5622 5621
5700 5701 5700 5698 5697 5695 5693 5690 5688 5686 5686 5683 5680 5677 5674 5671 5668 5664 5660 5657 5653 5649 5647 5644 5643 5642 5641 5641 5639 5638 5635 5633 5630 5629 5628 5627 5627 5626 5624 5622 5619 5617 5615
5696 5697 5696 5693 5693 5692 5690 5687 5685 5685 5682 5679 5675 5672 5670 5667 5663 5659 5654 5651 5648 5643 5640 5638 5635 5635 5635 5634 5633 5632 5631 5628 5625 5623 5622 5621 5620 5619 5617 5614 5613 5610 5607
5691 5692 5691 5688 5687 5687 5687 5684 5682 5680 5677 5673 5670 5667 5664 5661 5658 5654 5649 5645 5641 5638 5635 5632 5630 5629 5628 5628 5627 5626 5624 5622 5619 5617 5616 5614 5612 5610 5608 5606 5604 5601 5597
5686 5686 5685 5683 5681 5682 5682 5681 5678 5676 5673 5668 5664 5660 5657 5653 5650 5648 5645 5641 5637 5633 5631 5628 5626 5624 5622 5621 5620 5619 5617 5615 5613 5610 5608 5606 5603 5601 5599 5596 5593 5591 5588
5680 5680 5680 5678 5677 5676 5675 5674 5673 5671 5667 5662 5658 5654 5651 5648 5644 5641 5639 5637 5636 5634 5630 5627 5624 5620 5617 5618 5616 5613 5610 5608 5605 5602 5598 5595 5592 5590 5587 5585 5583 5581 5578
5673 5673 5673 5672 5671 5670 5669 5668 5667 5665 5661 5655 5651 5648 5645 5641 5638 5634 5631 5630 5629 5627 5626 5624 5621 5618 5616 5614 5611 5608 5605 5602 5598 5594 5589 5586 5583 5580 5578 5575 5573 5571 5568